COSMOS 1017

Satellite information

Favourite Embed

Satellite Type and Status

PAYLOADIN ORBIT

Key statistics

Satellite COSMOS 1017 at a glance.

Uptime

17198

Days in orbit

Revolutions

≈ 12.5

Per day

Orbit

LEO

Low Earth Orbit

Inclination

74.0

Latest

Satellite identification and parameters

Extended collection of information and parameters for COSMOS 1017.

Object identification

Identified? True

Debris? False

Object name: COSMOS 1017

International designator: 1978-056E

Object number (NORAD): 10934

Object ID (CCSDS): 10934

Country: COMMONWEALTH OF INDEPENDENT STATES (CIS)

Current information (Y/N): Y

RCS size: MEDIUM

Orbital parameters

Period: 115.421 minutes

Inclination: 74.0247 deg

SMA: 7852.662 km

Apoapsis: 1491.486 km

Periapsis: 1457.569 km

RAAN: 164.255 deg

Eccentricy: 0.0021596

Argument of periapsis: 351.9229 deg

Mean anomaly: 40.3234 deg

Mean motion: 12.4760574 rev/day

Mean motion (dot): -0.00000014 rev/day2

B* drag term: 0.000011163 1/REarth

Two-line elements (TLE)

Creation date: July 8, 2025, 2:27 a.m.

Reference frame: TEME

Reference center: EARTH

Epoch: July 7, 2025, 10:41 p.m. UTC

TLE line 0: 0 COSMOS 1017

TLE line 1: 1 10934U 78056E 25188.94527668 -.00000014 00000-0 11163-4 0 9996

TLE line 2: 2 10934 74.0247 164.2550 0021596 351.9229 40.3234 12.47605740144348

Live tracking on map

Real-time ground track for satellite COSMOS 1017.

In-orbit conjunctions

A list of the most updated potential collisions computed for object COSMOS 1017.

Target Orbit TCA Probability of collision Miss distance Type
SL-14 R/B LEO 2024-07-22 02:20:25 0.0001283206 57.0 (m) ROCKET BODY

Associated space launch

Military communications satellites

COSMOS 1017 was lifted into orbit during the mission ‘Kosmos-3M | Strela-1M 145-152’, on board a Kosmos-3M space rocket.

The launch took place on June 7, 1978, 10 p.m. from 132/1 (132L).

For more information about the launch, click the button.

Launch to space Kosmos-3M | Strela-1M 145-152
Kosmos-3M | Strela-1M 145-152

Agency: N/A

Status: Launch Successful

Launch date: June 7, 1978, 10 p.m. UTC

Rocket: Kosmos-3M

Launch pad: 132/1 (132L)

Location: Plesetsk Cosmodrome, Russian Federation

...

Latest news about this satellite

There are no fresh news available about this satellite. Check back as we update our databases every day.


Newsletter sign-up

Weekly statistics, charts and insights to help you stay on top of the space industry.